User: anonymous   Login
Location: Aalen
(48.8330°N, 10.1000°E)
Time: 19:09:51
(UTC+02:00)
Language:

FENGYUN 1C DEB - Orbit

View from above orbital plane
View from above orbital plane
View from above satellite
View from above satellite

Ground track
Ground track

The orbit data is extracted from the following two-line orbital elements,

1 33683U 99025DFU 22223.04267708  .00003935  00000-0  10930-2 0  9998
2 33683  98.2578  74.0055 0069580 301.9346  57.5092 14.45608097753400
Epoch (UTC): 11 August 2022 01:01:27
Eccentricity: 0.0069580
inclination: 98.2578°
perigee height: 690 km
apogee height: 789 km
right ascension of ascending node: 74.0055°
argument of perigee: 301.9346°
revolutions per day: 14.45608097
mean anomaly at epoch: 57.5092°
orbit number at epoch: 75340

The dashed part of the orbit path shows where the satellite is in the earth's shadow,  

DLR